User: anonymous   Login
Location: Unspecified
(0.0000°N, 0.0000°E)
Time: 07:30:00
(UTC+00:00)
Language:

Kosmos-1709 - Orbit

View from above orbital plane
View from above orbital plane
View from above satellite
View from above satellite

Ground track
Ground track

The orbit data is extracted from the following two-line orbital elements,

1 16368U 85116A   18015.74062605  .00000044  00000-0  30051-4 0  9991
2 16368  82.9437 227.9500 0036052  55.8653 353.3386 13.74453132608752
Epoch (UTC): 15 January 2018 17:46:30
Eccentricity: 0.0036052
inclination: 82.9437°
perigee height: 957 km
apogee height: 1010 km
right ascension of ascending node: 227.9500°
argument of perigee: 55.8653°
revolutions per day: 13.74453132
mean anomaly at epoch: 353.3386°
orbit number at epoch: 60875

The dashed part of the orbit path shows where the satellite is in the earth's shadow,  

DLR